[[{"header":{"parameterUnit":"m.s-1","parameterCategory":1,"la1":30.2991,"la2":30.254,"lo1":-89.0895,"lo2":-89.0444,"dy":0.0017,"dx":0.0017,"nx":28,"ny":28,"refTime":"2025-08-13T03:00:00:Z","depth":0,"parameterNumber":2,"parameterNumberName":"U-component_of_WINDS"},"data":[0,0,0,0,0,0,0,0,0,0,0,0,0,0,0,0,0,0,0,0,0,0,0,0,0,0,0,0,0,0,0,0,0,0,0,0,0,0,0,0,0,0,0,0,0,0,0,0,0,0,0,0,0,0,0,0,0,0,1.6638,1.664,0,1.6761,1.6763,1.6764,1.677,1.6768,1.6767,1.6765,1.6893,1.6897,1.6902,0,0,0,0,0,0,0,0,0,0,0,0,0,1.6409,1.6413,1.6638,1.664,1.6641,1.6761,1.6763,1.6764,1.677,1.6768,1.6766,1.6765,1.6891,1.6897,1.6902,0,0,0,0,0,0,0,0,0,0,0,0,0,1.6518,1.6415,1.6638,1.6659,1.6662,1.6761,1.6763,1.6765,1.677,1.6768,1.6766,1.6764,1.6889,1.6896,1.6903,1.6991,0,0,1.6925,1.6928,0,0,0,0,0,0,0,0,1.6512,1.6526,1.6654,1.6657,1.6661,1.6748,1.6729,1.6841,1.6771,1.6729,1.6765,1.6763,1.6846,1.6857,1.6885,1.6997,1.7002,1.6926,1.693,1.6933,1.6935,0,0,0,0,0,0,0,1.6504,1.6521,1.6687,1.6656,1.666,1.6662,1.6675,1.675,1.6799,1.6733,1.6733,1.6748,1.6848,1.6878,1.6888,1.7004,1.6925,1.6932,1.6936,1.6939,1.7192,1.7194,0,0,0,0,0,0,1.6493,1.6515,1.6683,1.6691,1.6579,1.6668,1.6682,1.6722,1.6798,1.6807,1.6749,1.6748,1.6867,1.6879,1.6892,1.6998,1.6933,1.6939,1.6944,1.719,1.7193,1.7195,0,0,0,0,0,0,1.6488,1.6508,1.6678,1.6603,1.6625,1.6674,1.6719,1.6726,1.6756,1.681,1.6819,1.6771,1.6866,1.6882,1.6966,1.7002,1.6943,1.6949,1.7187,1.7191,1.7194,1.7211,0,0,0,0,0,0,1.6481,1.6506,1.6539,1.6604,1.6629,1.6749,1.6721,1.673,1.6768,1.6767,1.6833,1.6842,1.6865,1.6955,1.6973,1.7011,1.6955,1.7184,1.7188,1.7193,1.7207,1.7215,1.7221,0,0,0,0,0,1.6473,1.654,1.6541,1.6561,1.6672,1.6751,1.6766,1.6791,1.6771,1.6805,1.684,1.684,1.6996,1.6963,1.6983,1.7025,1.7181,1.7187,1.7192,1.7204,1.7213,1.7221,0,0,0,0,0,0,1.6479,1.6549,1.6551,1.664,1.669,1.6752,1.6796,1.68,1.6856,1.6853,1.6882,1.6897,1.6979,1.7011,1.6973,1.7113,1.7086,1.7096,1.7088,1.7098,1.7104,1.7094,1.6961,0,0,0,0,0,1.6491,1.6549,1.6607,1.6681,1.6705,1.6746,1.6782,1.6797,1.6849,1.687,1.6912,1.6963,1.7023,1.7063,1.7122,1.7213,1.7226,1.7251,1.7258,1.7263,1.7271,1.732,1.7331,1.7214,1.7213,1.7213,0,0,1.6515,1.6561,1.6596,1.6683,1.6723,1.6783,1.6764,1.6828,1.6873,1.6881,1.6961,1.6993,1.7052,1.7139,1.718,1.7168,1.7306,1.727,1.7274,1.7279,1.7326,1.7337,1.7347,1.7217,1.7217,1.7216,0,0,1.659,1.6631,1.6696,1.6737,1.6797,1.6824,1.684,1.6902,1.6923,1.7004,1.7011,1.7065,1.7169,1.721,1.7245,1.7335,1.7337,1.7354,1.739,1.7437,1.7446,1.7454,1.7485,1.7496,1.7362,1.7362,1.7362,0,1.6613,1.6703,1.6729,1.6793,1.6831,1.684,1.6906,1.6944,1.7021,1.7047,1.7033,1.7163,1.7204,1.73,1.7321,1.735,1.7368,1.7346,1.7443,1.7451,1.7459,1.7489,1.75,1.7363,1.7363,1.7363,1.7363,0,1.6728,1.679,1.6836,1.6908,1.6952,1.7016,1.7052,1.7092,1.7104,1.7132,1.7214,1.7264,1.7332,1.7356,1.7369,1.7454,1.7445,1.7437,1.741,1.7472,1.75,1.7511,1.7366,1.7365,1.7365,1.7364,0,0,1.6809,1.6895,1.6911,1.6944,1.7012,1.706,1.7126,1.7192,1.7225,1.7279,1.7333,1.7421,1.7413,1.7453,1.747,1.7512,1.7578,1.7498,1.75,1.751,1.7673,1.7677,1.769,1.758,1.7583,1.7585,1.7668,0,1.689,1.7004,1.7029,1.7129,1.7186,1.7196,1.7253,1.73,1.7329,1.7381,1.7413,1.7474,1.7461,1.7484,1.7526,1.7561,1.7611,1.7556,1.763,1.7633,1.7613,1.7705,1.771,1.7786,1.7679,1.7681,1.7682,0,1.6999,1.7053,1.7158,1.7217,1.7242,1.7292,1.7354,1.7405,1.746,1.7477,1.7521,1.7534,1.7601,1.7573,1.7667,1.7628,1.7661,1.7683,1.7686,1.7692,1.766,1.7712,1.7811,1.7821,1.77,1.7699,1.7698,0,1.7045,1.7145,1.722,1.7248,1.7319,1.7354,1.7386,1.7438,1.7476,1.7531,1.7555,1.7618,1.7651,1.7699,1.7728,1.7706,1.7819,1.7794,1.7834,1.7833,1.7856,1.7854,1.7959,1.788,1.788,1.788,1.788,0,1.7131,1.7194,1.7241,1.7287,1.7358,1.7386,1.7456,1.7487,1.7534,1.7586,1.7599,1.7648,1.7684,1.7738,1.7762,1.7834,1.785,1.7865,1.787,1.7863,1.7861,1.7883,1.7878,1.7883,1.7882,1.7882,1.7881,0,1.7193,1.7227,1.7309,1.737,1.7387,1.7437,1.7489,1.7534,1.7563,1.7628,1.7645,1.7691,1.7755,1.7789,1.7869,1.7885,1.7965,1.7969,1.7947,1.7948,1.7986,1.7981,1.8108,1.8126,1.8037,1.8038,1.8038,0,1.7245,1.7293,1.7359,1.7395,1.7427,1.7484,1.7523,1.7553,1.7593,1.7658,1.7695,1.776,1.7812,1.7914,1.7954,1.8015,1.8019,1.8059,1.8028,1.8019,1.8017,1.8013,1.8017,1.8064,1.8065,1.8065,1.8066,0,1.7332,1.7346,1.7401,1.7462,1.7507,1.7557,1.7606,1.7634,1.7673,1.7717,1.7782,1.7823,1.7904,1.7968,1.8032,1.8065,1.8071,1.8076,1.8088,1.808,1.8064,1.8071,1.7959,1.8072,1.8071,1.8071,1.8071,1.807,1.7389,1.7432,1.7485,1.7545,1.7585,1.7631,1.7675,1.771,1.7764,1.7832,1.7848,1.7916,1.7969,1.8056,1.809,1.8144,1.8136,1.8154,1.8158,1.8162,1.8162,1.8057,1.8156,1.8156,1.8156,1.8156,1.8156,0,1.7475,1.751,1.7565,1.7633,1.768,1.7683,1.7737,1.7776,1.7836,1.7885,1.7936,1.8011,1.8072,1.8117,1.818,1.8215,1.8219,1.823,1.8226,1.8233,1.8167,1.8149,1.8225,1.8225,1.8225,1.8225,1.8225,1.8225,1.7525,1.7598,1.7618,1.7711,1.7745,1.7812,1.7842,1.7884,1.7922,1.8005,1.8056,1.8085,1.8132,1.8198,1.8254,1.8266,1.8288,1.8298,1.8309,1.8246,1.8238,1.8231,1.8214,1.8303,1.8303,1.8371,1.8372,1.8372]},{"header":{"parameterUnit":"m.s-1","parameterCategory":1,"la1":30.2991,"la2":30.254,"lo1":-89.0895,"lo2":-89.0444,"dy":0.0017,"dx":0.0017,"nx":28,"ny":28,"refTime":"2025-08-13T03:00:00:Z","depth":0,"parameterNumber":3,"parameterNumberName":"V-component_of_WINDS"},"data":[0,0,0,0,0,0,0,0,0,0,0,0,0,0,0,0,0,0,0,0,0,0,0,0,0,0,0,0,0,0,0,0,0,0,0,0,0,0,0,0,0,0,0,0,0,0,0,0,0,0,0,0,0,0,0,0,0,0,3.0279,3.0279,0,3.0263,3.0263,3.0263,3.019,3.0189,3.0187,3.0185,3.017,3.0171,3.0172,0,0,0,0,0,0,0,0,0,0,0,0,0,3.0248,3.0249,3.0279,3.0279,3.0279,3.0263,3.0263,3.0263,3.0191,3.0189,3.0186,3.0185,3.017,3.0171,3.0172,0,0,0,0,0,0,0,0,0,0,0,0,0,3.025,3.025,3.0279,3.0241,3.0237,3.0263,3.0263,3.0262,3.0191,3.0188,3.0186,3.0184,3.0169,3.0171,3.0172,3.0234,0,0,3.0178,3.0179,0,0,0,0,0,0,0,0,3.025,3.0251,3.0247,3.0244,3.024,3.0226,3.0246,3.0253,3.0192,3.0209,3.0185,3.0182,3.0191,3.0191,3.0193,3.0233,3.0233,3.0178,3.0179,3.018,3.018,0,0,0,0,0,0,0,3.025,3.0252,3.0273,3.0247,3.0243,3.0225,3.0222,3.0247,3.0214,3.0207,3.0202,3.0201,3.0188,3.0192,3.0192,3.0233,3.0178,3.0179,3.0181,3.0181,3.0321,3.0324,0,0,0,0,0,0,3.0255,3.0252,3.0273,3.0272,3.0239,3.0227,3.0224,3.0233,3.0214,3.0208,3.0203,3.0197,3.019,3.019,3.0191,3.0261,3.018,3.0181,3.0182,3.0319,3.0322,3.0325,0,0,0,0,0,0,3.0255,3.0258,3.0274,3.0261,3.0261,3.0231,3.0241,3.0234,3.0237,3.0211,3.0204,3.0212,3.0188,3.0189,3.0224,3.026,3.0182,3.0184,3.0316,3.032,3.0323,3.0402,0,0,0,0,0,0,3.0254,3.0258,3.0281,3.0262,3.0262,3.0307,3.0243,3.0236,3.024,3.0233,3.0218,3.0213,3.0186,3.0221,3.0225,3.0261,3.0185,3.0312,3.0317,3.0322,3.0396,3.0408,3.0419,0,0,0,0,0,3.0253,3.0305,3.0283,3.0286,3.029,3.0309,3.0309,3.0277,3.0244,3.0266,3.0249,3.0213,3.0255,3.0226,3.0229,3.0266,3.031,3.0316,3.0322,3.0391,3.0406,3.0418,0,0,0,0,0,0,3.033,3.0301,3.0277,3.0323,3.0319,3.0297,3.0324,3.0294,3.0299,3.0292,3.0252,3.025,3.029,3.0281,3.0249,3.0324,3.0276,3.0284,3.0328,3.0342,3.0353,3.0353,3.0187,0,0,0,0,0,3.0352,3.0369,3.0343,3.0386,3.0385,3.0356,3.0362,3.0338,3.0332,3.033,3.0315,3.0311,3.0323,3.0332,3.0342,3.0395,3.039,3.0422,3.0433,3.0442,3.0449,3.0475,3.0488,3.0345,3.0345,3.0344,0,0,3.0398,3.0384,3.0398,3.0401,3.0395,3.0413,3.0355,3.0377,3.039,3.0333,3.0365,3.0354,3.0347,3.0391,3.0409,3.0385,3.0487,3.045,3.0458,3.0459,3.0482,3.0496,3.0508,3.0349,3.0348,3.0347,0,0,3.049,3.0482,3.0517,3.0512,3.0503,3.0482,3.0491,3.0473,3.0463,3.0494,3.0452,3.0467,3.049,3.0486,3.0487,3.0578,3.0545,3.0582,3.0641,3.0667,3.0678,3.0688,3.0719,3.0731,3.0589,3.0589,3.0589,0,3.0548,3.0574,3.0539,3.0563,3.0566,3.0515,3.0549,3.0546,3.0541,3.0544,3.0517,3.0543,3.0535,3.0576,3.0598,3.0602,3.0609,3.0583,3.0679,3.0689,3.0697,3.0727,3.0739,3.0593,3.0593,3.0593,3.0592,0,3.0645,3.0664,3.0693,3.0688,3.0694,3.0724,3.0693,3.0703,3.0678,3.0661,3.0693,3.0681,3.0687,3.0696,3.0672,3.0734,3.0719,3.0686,3.0638,3.0716,3.0743,3.0754,3.06,3.0598,3.0597,3.0596,0,0,3.0785,3.076,3.0771,3.0768,3.0754,3.0768,3.0795,3.08,3.081,3.0809,3.083,3.0849,3.0819,3.082,3.0796,3.0819,3.089,3.0783,3.0782,3.0802,3.0956,3.098,3.0994,3.0869,3.0871,3.0872,3.0957,0,3.0872,3.0916,3.0885,3.0934,3.095,3.0902,3.0926,3.092,3.0905,3.0917,3.09,3.0914,3.0873,3.0873,3.0894,3.0877,3.092,3.0871,3.0888,3.0889,3.0889,3.1008,3.1033,3.1113,3.0967,3.0969,3.097,0,3.098,3.0982,3.1033,3.1015,3.102,3.1042,3.1044,3.1056,3.1048,3.1035,3.1037,3.1006,3.1031,3.0985,3.1019,3.0986,3.0991,3.0984,3.0986,3.0985,3.0933,3.1009,3.1138,3.115,3.0987,3.0985,3.0984,0,3.1075,3.1091,3.1122,3.1122,3.1102,3.1118,3.1111,3.1101,3.1106,3.1108,3.111,3.1116,3.1119,3.1124,3.1095,3.1064,3.1133,3.1084,3.1122,3.1123,3.1138,3.1137,3.1268,3.1144,3.1144,3.1144,3.1143,0,3.1174,3.1207,3.1165,3.1184,3.1219,3.1183,3.1219,3.1207,3.1198,3.1215,3.1175,3.1191,3.1153,3.1166,3.1144,3.1175,3.1177,3.1167,3.1161,3.117,3.1171,3.1172,3.1165,3.1147,3.1146,3.1145,3.1145,0,3.1286,3.1259,3.129,3.1269,3.1264,3.1291,3.1273,3.129,3.1272,3.1293,3.1296,3.1268,3.1281,3.1253,3.1263,3.1248,3.1291,3.1277,3.1294,3.1289,3.1328,3.1325,3.1463,3.1479,3.1346,3.1348,3.1349,0,3.1351,3.1374,3.1355,3.1363,3.1357,3.1371,3.1375,3.1341,3.1347,3.134,3.1358,3.1368,3.1373,3.1396,3.1376,3.1383,3.1367,3.1416,3.1368,3.1376,3.1367,3.1365,3.1367,3.1425,3.1427,3.1428,3.1429,0,3.1468,3.1453,3.1461,3.1464,3.147,3.1471,3.1469,3.1478,3.1441,3.1451,3.1463,3.1467,3.1476,3.1485,3.1488,3.148,3.1449,3.1445,3.1453,3.1462,3.147,3.1465,3.1319,3.1441,3.144,3.1439,3.1438,3.1438,3.1557,3.1575,3.1564,3.1574,3.1569,3.1568,3.1582,3.1566,3.1575,3.1579,3.1559,3.1575,3.1567,3.1566,3.1562,3.1575,3.1553,3.1567,3.157,3.1573,3.1579,3.147,3.1575,3.1575,3.1575,3.1574,3.1574,0,3.167,3.1661,3.167,3.1668,3.1676,3.1645,3.1642,3.165,3.1665,3.1659,3.1665,3.1679,3.1688,3.167,3.1676,3.1689,3.1675,3.1692,3.169,3.1688,3.1599,3.159,3.1703,3.1703,3.1703,3.1703,3.1703,3.1703,3.173,3.1759,3.1743,3.177,3.176,3.1775,3.1775,3.1774,3.1769,3.1786,3.1793,3.1781,3.177,3.1775,3.1782,3.1776,3.178,3.1802,3.1791,3.1707,3.1695,3.1683,3.1674,3.1803,3.1803,3.1879,3.188,3.188]}]]